Location: Carella
(45.8167°N, 9.2667°E)
Time: 22:22:31
(UTC+00:00)

STARLINK-1116 - Pass Details

Date: 30 March 2020
Orbit: 549 x 550 km, 53.0° (Epoch: 03 June)

Event Time Altitude Azimuth Distance (km) Brightness Sun altitude
Rises 18:41:36 0° 300° (WNW) 2,816 9.1 -9.8°
Reaches altitude 10° 18:43:54 10° 299° (WNW) 1,909 7.9 -10.1°
Maximum altitude 18:48:14 73° 215° (SW) 611 3.9 -10.9°
Enters shadow 18:51:51 14° 132° (SE) 1,621 5.4 -11.5°
